Погода в Верхнебелом

Россия / Амурская область     50°36′30″N   128°55′28″E
темп.,
°C
ветер,
м/с
пор.,
м/с
влажн.,
%
обл.,
%
осадки,
мм/ч
давл.,
гПа
погр.,
м
17 мая, вт
вт1700:00+8ю71237100 0.0 998403
03:00+8юз4846100 0.0 998250
06:00+6сз588571 0.0 1001455
09:00+9сз565226 0.0 10021092
12:00+12сз673938 0.0 10031941
15:00+12с774183 0.0 10041889
18:00+12с473474 0.0 10052368
21:00+8всв225243 0.0 100717
18 мая, ср
ср1800:00+6ююз22554 0.0 100818
03:00+5юз35622 0.0 100969
06:00+6зюз245499 0.0 1010107
09:00+13ююз343399 0.0 1009464
12:00+18ююз5730100 0.0 10071910
15:00+20ююз4827100 0.0 10042788
18:00+18в233842 0.0 1003116
21:00+13юв4458100 0.0 100455
19 мая, чт
чт1900:00+12ю51072100 0.1 1003221
03:00+11ююз3881100 0.4 1003193
06:00+10ссз3685100 0.5 1003203
09:00+14с79635 0.5 1004837
12:00+17ссз78355 0.0 10042096
15:00+18ссз78250 0.0 10042319
18:00+17ссз673299 0.0 10042033
21:00+12ссв3342100 0.0 100534
20 мая, пт
пт2000:00+11ююв224385 0.0 100413
03:00+10ююв4946100 0.0 1003170
06:00+11ююв81743100 0.0 999515
09:00+17юз69453 0.0 9971079
12:00+18зсз911350 0.0 9981478
15:00+17с79432 0.0 9981314
18:00+14с665389 0.0 1000984
21:00+10ссв5867100 0.0 1002349
21 мая, сб
сб2100:00+9с377446 0.0 1003325
03:00+8ссз368299 0.0 1004230
06:00+8ссв37815 0.0 1005333
09:00+13с46590 0.0 1005965
12:00+17ссз574519 0.0 10051792
15:00+16ссз8856100 0.1 10051456
18:00+17ссз48466 0.4 10051986
21:00+12с34512 0.4 100655